Location: Unspecified
(47.4992°N, 121.7766°W)
Time: 17:58:28
(UTC-08:00)

Cosmos 2058 - Pass Details

Date: 31 January 2021
Orbit: 561 x 584 km, 82.5° (Epoch: 05 March)

Event Time Altitude Azimuth Distance (km) Brightness Sun altitude
Rises 05:44:32 0° 357° (N) 2,774 6.3 -18.6°
Reaches altitude 10° 05:46:51 10° 5° (N) 1,869 5.5 -18.2°
Maximum altitude 05:50:42 38° 75° (ENE) 872 4.4 -17.6°
Drops below altitude 10° 05:54:31 10° 144° (SE) 1,849 6.1 -16.9°
Sets 05:56:47 0° 153° (SSE) 2,739 6.9 -16.6°
